Location: Ernsee
(50.8780°N, 12.0389°E)
Time: 06:32:21
(UTC+00:00)

CZ-4B DEB - Pass Details

Date: 20 January 2020
Orbit: 840 x 862 km, 99.1° (Epoch: 24 February)

Event Time Altitude Azimuth Distance (km) Brightness Sun altitude
Rises 05:18:21 0° 13° (NNE) 3,454 7.4 -16.2°
Reaches altitude 10° 05:20:46 10° 9° (N) 2,511 6.6 -15.9°
Maximum altitude 05:26:14 58° 292° (WNW) 1,001 4.2 -15.0°
Drops below altitude 10° 05:31:37 10° 215° (SW) 2,484 6.4 -14.2°
Sets 05:34:00 0° 212° (SSW) 3,413 7.2 -13.8°
